Regional Weather Roundup
Issued by NWS

Home | Current Version | Previous Version | Graphics & Text | Print | Product List | Glossary On
Versions: 1 2 3 4 5 6 7 8 9 10 11 12 13 14 15 16 17 18 19 20 21 22 23 24 25 26 27 28 29 30 31 32 33 34 35 36 37 38 39 40 41 42 43 44 45 46 47 48 49 50
000
ASUS45 KBOU 220307
RWRCO

WEATHER ROUNDUP FOR COLORADO
NATIONAL WEATHER SERVICE DENVER/BOULDER CO
900 PM MDT THU MAY 21 2015

NOTE: "FAIR" INDICATES FEW OR NO CLOUDS BELOW 12000 FEET WITH NO
SIGNIFICANT WEATHER AND/OR OBSTRUCTIONS TO VISIBILITY.

COZ001>005-013-030-031-220400-
...NORTHWEST COLORADO...

CITY           SKY/WX    TMP DP  RH WIND       PRES   REMARKS
CRAIG          LGT RAIN  51  42  71 SE12      29.99S
HAYDEN         CLOUDY    48  39  71 SW10G18   30.02R
MEEKER         CLOUDY    54  39  57 E5        29.99R
MOUNT WERNER   NOT AVBL
STEAMBOAT SPGS CLOUDY    50  38  61 E5        30.04R
WALDEN         CLOUDY    43  36  75 N5        30.09F
$$

COZ006>008-011-220400-
...WEST CENTRAL VALLEYS...

CITY           SKY/WX    TMP DP  RH WIND       PRES   REMARKS
GRAND JUNCTION CLOUDY    56  44  64 E6        29.88F
MONTROSE       CLOUDY    56  39  53 N3        29.96S
EAGLE          CLOUDY    52  43  71 NE7       30.04F
RIFLE          CLOUDY    59  40  49 NE3       29.95R
DELTA          CLOUDY    58  44  60 SE6       29.92F
NUCLA          CLOUDY    59  36  41 SE10      29.97R
$$

COZ017>023-064>068-220400-
...SOUTHWEST COLORADO...

CITY           SKY/WX    TMP DP  RH WIND       PRES   REMARKS
DURANGO        CLOUDY    51  39  63 E6        30.01F
CORTEZ         MOCLDY    59  38  45 E15G23    29.93R
PAGOSA SPRINGS CLOUDY    46  38  73 CALM      30.07S
TELLURIDE      MOCLDY    47  33  57 SE7       30.10R
WOLF CREEK PAS NOT AVBL
$$

COZ009-010-012-014-032>034-037-058>063-220400-
...CENTRAL COLORADO...

CITY           SKY/WX    TMP DP  RH WIND       PRES   REMARKS
ASPEN          CLOUDY    46  40  79 SE10      30.04F
BUENA VISTA    CLOUDY    43  39  85 NE5       30.14F
COPPER MTN     FOG       34  30  86 NW3       30.24F VSB 1/2
BERTHOUD PASS  HVY SNOW  28  19  69 E31       30.28S VSB<1/4 WCI  12
COTTONWOOD PAS HVY SNOW  39  37  93 SE8       30.19F VSB<1/4
GUNNISON       CLOUDY    48  36  61 N8        30.07R
KREMMLING      RAIN      48  39  71 SE6       30.10R
LEADVILLE      CLOUDY    36  35  96 CALM      30.16F
SALIDA         CLOUDY    45  43  93 E7        30.21R
SUNLIGHT       CLOUDY    37  34  87 CALM      30.21S
WILKERSON PASS LGT RAIN  32  32 100 S5        30.28S VSB 1/4 WCI  27
$$

COZ069>075-220400-
...SAN LUIS VALLEY/SANGRE DE CRISTO MOUNTAINS...

CITY           SKY/WX    TMP DP  RH WIND       PRES   REMARKS
ALAMOSA        CLOUDY    47  39  74 S5        30.09F
LA VETA PASS   LGT SNOW N/A N/A N/A MISG      30.23S
SAGUACHE       CLOUDY    48  37  66 SE13G18   30.11R
$$

COZ035-036-038>040-220400-
...NORTHERN COLORADO FRONT RANGE...

CITY           SKY/WX    TMP DP  RH WIND       PRES   REMARKS
DENVER INTL AP CLOUDY    51  45  79 CALM      30.12R
DMNS CITY PARK   N/A     51  43  74 N5        30.11F
AURORA         CLOUDY    49  45  87 NE2       30.12S
FRONT RANGE AP NOT AVBL
ERIE MUNI ARPT CLOUDY    51  45  80 CALM      30.11S
BOULDER MUN AP CLOUDY    52  45  76 CALM      30.11R
CENTENNIAL     CLOUDY    49  43  80 S6        30.12R
BROOMFIELD     NOT AVBL
FORT COLLINS   CLOUDY    52  43  71 NE5       30.12R
LONGMONT       CLOUDY    54  45  72 CALM      30.12S
$$

COZ041-046-047-076>085-087-088-220400-
...PIKES PEAK/PALMER DIVIDE AND SOUTHERN FOOTHILLS...

CITY           SKY/WX    TMP DP  RH WIND       PRES   REMARKS
COLO. SPRINGS  LGT RAIN  45  45 100 SE13      30.16R FOG
A. F. ACADEMY  DRIZZLE   44  44 100 S6        30.15S
ELLICOTT       NOT AVBL
FALCON         RAIN      43  42  99 SE12      30.17F VSB 1/2
FORT CARSON    CLOUDY    46 N/A N/A S3        30.14S
LIMON          CLOUDY    46  43  89 SE15      30.16S
MONUMENT HILL  NOT AVBL
TRINIDAD       LGT RAIN  49  44  83 SW16      30.13R
$$

COZ042>045-048>051-090-091-220400-
...NORTHEAST COLORADO...

CITY           SKY/WX    TMP DP  RH WIND       PRES   REMARKS
GREELEY ARPT   CLOUDY    52  45  76 SE14G20   30.11R
AKRON          CLOUDY    49  45  86 SE14G24   30.16R
BURLINGTON     CLOUDY    50  43  77 SE13      30.18R
WRAY           CLOUDY    54  44  70 SE9       30.17S
STERLING       CLOUDY    54  45  71 S10       30.13S
HOLYOKE        NOT AVBL
FORT MORGAN    CLOUDY    51  44  76 SE12      30.15R
$$

COZ086-089-092>099-220400-
...SOUTHEAST COLORADO...

CITY           SKY/WX    TMP DP  RH WIND       PRES   REMARKS
PUEBLO         LGT RAIN  52  48  86 E13       30.09S
LA JUNTA       CLOUDY    53  45  74 SE9       30.10R
LAMAR          CLOUDY    51  46  83 SE7       30.13R
SPRINGFIELD      N/A     48  45  89 SE15      30.15R
$$


USA.gov is the U.S. government's official web portal to all federal, state and local government web resources and services.